Location: Shannon
(40.5500°S, 175.4167°E)
Time: 19:56:10
(UTC+00:00)

ADEOS Rocket - Pass Details

Date: 17 November 2025
Orbit: 859 x 1304 km, 98.7° (Epoch: 14 December)

Event Time Altitude Azimuth Distance (km) Brightness Sun altitude
Exits shadow 15:06:15 10° 359° (N) 3,340 5.4 -16.7°
Reaches altitude 10° 15:06:21 10° 359° (N) 3,310 5.3 -16.7°
Maximum altitude 15:13:56 59° 280° (W) 1,450 3.6 -15.7°
Drops below altitude 10° 15:21:11 10° 201° (SSW) 3,153 5.9 -14.7°
Sets 15:23:48 0° 197° (SSW) 4,066 6.6 -14.3°
